This is the latest recevied weather packets stored in our database for station/object W4SNA-4. If no packets are shown the sender has not sent any weather packets the latest 10 day(s).
| Time | Temp. | Humidity | Pressure | Rain* | Wind** | Luminosity | Snow |
|---|---|---|---|---|---|---|---|
| 1787851491 | 26.11° C | 82% | 1012 hPa | 0 mm | - | - | - |
| 1787851181 | 26.67° C | 81% | 1012 hPa | 0 mm | - | - | - |
| 1787850888 | 26.67° C | 82% | 1012 hPa | 0 mm | - | - | - |
| 1787850592 | 27.22° C | 81% | 1011.9 hPa | 0 mm | - | - | - |
| 1787850287 | 27.22° C | 80% | 1011.9 hPa | 0 mm | - | - | - |
| 1787849985 | 27.22° C | 80% | 1011.9 hPa | 0 mm | - | - | - |
| 1787849695 | 27.22° C | 78% | 1011.9 hPa | 0 mm | - | - | - |
| 1787849381 | 27.78° C | 79% | 1011.9 hPa | 0 mm | - | - | - |
| 1787849088 | 27.78° C | 78% | 1011.9 hPa | 0 mm | - | - | - |
| 1787848781 | 27.78° C | 77% | 1011.9 hPa | 0 mm | - | - | - |
| 1787848488 | 27.78° C | 77% | 1011.9 hPa | 0 mm | - | - | - |
| 1787847890 | 28.33° C | 76% | 1012 hPa | 0 mm | - | - | - |
| 1787847504 | 28.89° C | 76% | 1012 hPa | 0 mm | - | - | - |
| 1787847209 | 28.89° C | 75% | 1012 hPa | 0 mm | - | - | - |
| 1787846636 | 28.89° C | 75% | 1012.2 hPa | 0 mm | - | - | - |
| 1787846341 | 28.89° C | 75% | 1012.2 hPa | 0 mm | - | - | - |
| 1787846046 | 28.33° C | 75% | 1012.3 hPa | 0 mm | - | - | - |
| 1787845559 | 27.78° C | 79% | 1012.3 hPa | 0 mm | - | - | - |
| 1787845265 | 27.22° C | 81% | 1012.4 hPa | 0 mm | - | - | - |
| 1787844962 | 27.22° C | 84% | 1012.4 hPa | 0 mm | - | - | - |
| 1787844659 | 26.67° C | 84% | 1012.4 hPa | 0 mm | - | - | - |
| 1787844362 | 26.67° C | 83% | 1012.4 hPa | 0 mm | - | - | - |
| 1787844064 | 26.67° C | 83% | 1012.4 hPa | 0 mm | - | - | - |
| 1787843761 | 26.11° C | 83% | 1012.4 hPa | 0 mm | - | - | - |
| 1787843460 | 26.11° C | 83% | 1012.2 hPa | 0 mm | - | - | - |
* Rain latest hour (hover to see other rain measurements)
** Current wind speed in m/s (hover to see current wind gust speed)